Location: Blanot
(47.1713°N, 4.2340°E)
Time: 08:41:18
(UTC+00:00)

SL-8 R/B - Pass Details

Date: 14 July 2020
Orbit: 656 x 667 km, 48.4° (Epoch: 14 August)

Event Time Altitude Azimuth Distance (km) Brightness Sun altitude
Exits shadow 01:46:36 22° 246° (WSW) 1,451 5.0 -16.3°
Maximum altitude 01:49:44 80° 162° (SSE) 678 3.6 -16.0°
Drops below altitude 10° 01:54:32 10° 76° (ENE) 2,080 6.9 -15.6°
Sets 01:56:53 0° 75° (ENE) 2,992 7.8 -15.4°
